Change the Weather History Date:

Thursday, January 23, 2014

  Actual Average Record
Temperature  
Mean Temperature 12 °F -  
Max Temperature 19 °F 48 °F 69 °F (2013)
Min Temperature 6 °F 19 °F -7 °F (1955)
Degree Days  
Heating Degree Days 52    
Moisture  
Dew Point 12 °F    
Average Humidity 85    
Maximum Humidity 92    
Minimum Humidity 68    
Precipitation  
Precipitation 0.00 in - - ()
Sea Level Pressure  
Sea Level Pressure 30.38 in    
Wind  
Wind Speed 8 mph (East)    
Max Wind Speed 17 mph    
Max Gust Speed -    
Visibility 5 miles    
Events Snow    
Averages and records for this station are not official NWS values.
T = Trace of Precipitation, MM = Missing Value Source: NWS Daily Summary

Daily Weather History Graph

Daily Weather History Graph

Search for Another Location

Airport or City:

Trip Planner

Search our weather history database for the weather conditions in past years. The results will help you decide how hot, cold, wet, or windy it might be!

Date:

Astronomy

Jan. 23, 2014 Rise Set
Actual Time 7:06 AM MST 5:18 PM MST
Civil Twilight 6:39 AM MST 5:46 PM MST
Nautical Twilight 6:08 AM MST 6:17 PM MST
Astronomical Twilight 5:37 AM MST 6:47 PM MST
Moon No Moon Rise 10:58 AM MST (1/23)
Length of Visible Light 11h 07m
Length of Day
10h 12m
Waning Gibbous, 54% of the Moon is Illuminated
Jan 23
Waning Gibbous
Jan 23
Last Quarter
Jan 30
New
Feb 6
First Quarter
Feb 14
Full

Hourly Weather History & Observations

Time (MST) Temp. Windchill Dew Point Humidity Pressure Visibility Wind Dir Wind Speed Gust Speed Precip Events Conditions
12:53 AM 19.0 °F 12.3 °F 10.9 °F 71% 30.12 in 10.0 mi NNE 4.6 mph - N/A   Clear
1:53 AM 19.0 °F 11.1 °F 10.0 °F 68% 30.14 in 10.0 mi NNE 5.8 mph - N/A   Clear
2:53 AM 17.1 °F 7.6 °F 10.0 °F 74% 30.17 in 10.0 mi NE 6.9 mph - N/A   Overcast
3:46 AM 19.0 °F 8.2 °F 12.0 °F 74% 30.16 in 10.0 mi ENE 9.2 mph - N/A   Overcast
3:53 AM 19.0 °F 8.2 °F 12.0 °F 74% 30.18 in 10.0 mi ENE 9.2 mph - N/A   Overcast
4:40 AM 19.9 °F 7.3 °F 16.0 °F 85% 30.19 in 8.0 mi East 12.7 mph - 0.00 in Snow Light Snow
4:50 AM 19.4 °F 6.6 °F 15.8 °F 86% 30.19 in 7.0 mi East 12.7 mph - 0.00 in Snow Light Snow
4:53 AM 19.9 °F 7.9 °F 16.0 °F 85% 30.21 in 7.0 mi East 11.5 mph - 0.00 in Snow Light Snow
5:53 AM 19.9 °F 7.9 °F 17.1 °F 89% 30.26 in 8.0 mi ESE 11.5 mph - 0.00 in Snow Light Snow
6:53 AM 19.0 °F 9.0 °F 17.1 °F 92% 30.30 in 6.0 mi East 8.1 mph - 0.00 in Snow Light Snow
7:05 AM 19.0 °F 8.2 °F 17.1 °F 92% 30.25 in 6.0 mi East 9.2 mph - 0.00 in   Overcast
7:42 AM 19.0 °F 8.2 °F 17.1 °F 92% 30.27 in 3.0 mi East 9.2 mph - 0.00 in Snow Light Snow
7:53 AM 19.0 °F 8.2 °F 17.1 °F 92% 30.34 in 2.0 mi East 9.2 mph - 0.00 in Snow Light Snow
8:00 AM 19.0 °F 7.5 °F 17.1 °F 92% 30.28 in 1.2 mi East 10.4 mph - 0.00 in Snow Light Snow
8:31 AM 19.0 °F 8.2 °F 17.1 °F 92% 30.30 in 2.0 mi East 9.2 mph - 0.00 in Snow Light Snow
8:53 AM 18.0 °F 4.8 °F 16.0 °F 92% 30.38 in 2.5 mi East 12.7 mph - 0.00 in Snow Light Snow
9:02 AM 18.0 °F 5.4 °F 16.0 °F 92% 30.32 in 3.0 mi East 11.5 mph - 0.00 in Snow Light Snow
9:12 AM 17.1 °F 1.5 °F 15.1 °F 92% 30.33 in 1.8 mi East 17.3 mph - 0.00 in Snow Light Snow
9:20 AM 17.1 °F 3.0 °F 14.0 °F 88% 30.34 in 2.0 mi East 13.8 mph - 0.00 in Snow Light Snow
9:53 AM 16.0 °F 1.7 °F 14.0 °F 92% 30.47 in 3.0 mi East 13.8 mph - 0.00 in Snow Light Snow
10:20 AM 16.0 °F 4.4 °F 14.0 °F 92% 30.37 in 7.0 mi ESE 9.2 mph - 0.00 in Snow Light Snow
10:40 AM 16.0 °F 2.9 °F 14.0 °F 92% 30.37 in 5.0 mi ESE 11.5 mph - 0.00 in Snow Light Snow
10:53 AM 15.1 °F 1.8 °F 12.9 °F 91% 30.51 in 3.0 mi East 11.5 mph - 0.00 in Snow Light Snow
11:21 AM 16.0 °F 4.4 °F 12.9 °F 88% 30.37 in 4.0 mi ESE 9.2 mph - 0.00 in Snow Light Snow
11:50 AM 15.8 °F 6.1 °F 12.2 °F 86% 30.38 in 3.0 mi East 6.9 mph - 0.00 in Snow Light Snow
11:53 AM 16.0 °F 6.3 °F 12.0 °F 84% 30.48 in 3.0 mi ESE 6.9 mph - 0.00 in Snow Light Snow
12:01 PM 16.0 °F 7.4 °F 12.0 °F 84% 30.37 in 2.5 mi East 5.8 mph - 0.00 in Snow Light Snow
12:12 PM 16.0 °F 5.3 °F 12.0 °F 84% 30.37 in 1.8 mi East 8.1 mph - 0.00 in Snow Light Snow
12:31 PM 16.0 °F 5.3 °F 12.0 °F 84% 30.37 in 1.5 mi East 8.1 mph - 0.00 in Snow Light Snow
12:50 PM 15.8 °F 5.1 °F 12.2 °F 86% 30.36 in 1.8 mi East 8.1 mph - 0.00 in Snow Light Snow
12:53 PM 17.1 °F 6.6 °F 12.0 °F 81% 30.49 in 2.0 mi East 8.1 mph - 0.00 in Snow Light Snow
1:02 PM 16.0 °F 5.3 °F 12.0 °F 84% 30.36 in 2.0 mi ENE 8.1 mph - 0.00 in Snow Light Snow
1:15 PM 17.1 °F 5.8 °F 12.9 °F 84% 30.36 in 2.5 mi East 9.2 mph - 0.00 in Snow Light Snow
1:40 PM 17.1 °F 7.6 °F 12.0 °F 81% 30.37 in 3.0 mi East 6.9 mph - 0.00 in Snow Light Snow
1:53 PM 17.1 °F 6.6 °F 12.9 °F 84% 30.49 in 4.0 mi East 8.1 mph - 0.00 in Snow Light Snow
2:10 PM 17.1 °F 5.8 °F 12.9 °F 84% 30.38 in 3.0 mi East 9.2 mph - 0.00 in Snow Light Snow
2:18 PM 17.1 °F 6.6 °F 12.9 °F 84% 30.38 in 2.0 mi ENE 8.1 mph - 0.00 in Snow Light Snow
2:53 PM 16.0 °F 4.4 °F 10.9 °F 81% 30.53 in 2.5 mi East 9.2 mph - 0.00 in Snow Light Snow
3:06 PM 16.0 °F 4.4 °F 10.9 °F 81% 30.40 in 2.0 mi East 9.2 mph - 0.00 in Snow Light Snow
3:17 PM 16.0 °F 5.3 °F 12.0 °F 84% 30.40 in 1.8 mi East 8.1 mph - 0.00 in Snow Light Snow
3:30 PM 16.0 °F 5.3 °F 10.9 °F 81% 30.40 in 2.0 mi ESE 8.1 mph - 0.00 in Snow Light Snow
3:53 PM 17.1 °F 10.0 °F 12.0 °F 81% 30.54 in 2.0 mi East 4.6 mph - 0.00 in Snow Light Snow
4:11 PM 16.0 °F 7.4 °F 10.9 °F 81% 30.40 in 4.0 mi SSE 5.8 mph - 0.00 in Snow Light Snow
4:28 PM 15.1 °F 6.4 °F 10.9 °F 84% 30.41 in 6.0 mi SE 5.8 mph - 0.00 in Snow Light Snow
4:53 PM 15.1 °F 6.4 °F 10.0 °F 80% 30.53 in 6.0 mi SE 5.8 mph - 0.00 in   Haze
5:53 PM 14.0 °F - 9.0 °F 80% 30.56 in 10.0 mi Calm Calm - N/A   Overcast
6:21 PM 12.0 °F 2.7 °F 9.0 °F 88% 30.43 in 10.0 mi SSW 5.8 mph - N/A   Overcast
6:53 PM 12.0 °F - 9.0 °F 88% 30.58 in 10.0 mi Calm Calm - N/A   Overcast
7:53 PM 10.0 °F - 7.0 °F 87% 30.60 in 10.0 mi Calm Calm - N/A   Overcast
8:28 PM 10.0 °F - 7.0 °F 87% 30.44 in 10.0 mi Calm Calm - N/A   Scattered Clouds
8:53 PM 8.1 °F -3.2 °F 6.1 °F 92% 30.62 in 6.0 mi SSW 6.9 mph - N/A   Partly Cloudy
9:23 PM 6.1 °F -8.7 °F 3.9 °F 91% 30.43 in 9.0 mi SSW 10.4 mph - N/A   Mostly Cloudy
9:44 PM 8.1 °F -7.7 °F 5.0 °F 87% 30.43 in 10.0 mi SSW 12.7 mph - N/A   Scattered Clouds
9:53 PM 8.1 °F -7.7 °F 5.0 °F 87% 30.62 in 10.0 mi SSW 12.7 mph - N/A   Partly Cloudy
10:53 PM 8.1 °F -9.6 °F 5.0 °F 87% 30.62 in 10.0 mi SSW 16.1 mph - N/A   Clear
11:53 PM 8.1 °F -7.7 °F 5.0 °F 87% 30.61 in 10.0 mi South 12.7 mph - N/A   Clear